| time (UTC) | temp F | wind direction | speed MPH | gust MPH | rain 1hr in | rain 24hr in | rain mn in | humidity % | barometer mb |
| 20260504231933 | 68 | 20 | 0.0 | 0.0 | 0.00 | 0.00 | 0.00 | 43 | 1051.3 |
| 20260504231833 | 68 | 169 | 0.0 | 1.0 | 0.00 | 0.00 | 0.00 | 42 | 1051.4 |
| 20260504230835 | 68 | 217 | 0.0 | 3.0 | 0.00 | 0.00 | 0.00 | 41 | 1051.3 |
| 20260504225933 | 69 | 215 | 1.0 | 3.0 | 0.00 | 0.00 | 0.00 | 41 | 1051.3 |
| 20260504224934 | 69 | 130 | 1.0 | 3.0 | 0.00 | 0.00 | 0.00 | 39 | 1051.2 |
| 20260504224836 | 69 | 183 | 1.0 | 4.0 | 0.00 | 0.00 | 0.00 | 40 | 1051.1 |
| 20260504223837 | 70 | 43 | 1.0 | 3.0 | 0.00 | 0.00 | 0.00 | 39 | 1051.2 |
| 20260504223733 | 70 | 358 | 1.0 | 4.0 | 0.00 | 0.00 | 0.00 | 38 | 1051.1 |
| 20260504222737 | 72 | 57 | 2.0 | 4.0 | 0.00 | 0.00 | 0.00 | 36 | 1051.1 |
| 20260504221736 | 73 | 124 | 1.0 | 3.0 | 0.00 | 0.00 | 0.00 | 36 | 1051.1 |
| 20260504220833 | 75 | 136 | 2.0 | 9.0 | 0.00 | 0.00 | 0.00 | 34 | 1051.1 |
| 20260504220735 | 75 | 152 | 0.0 | 2.0 | 0.00 | 0.00 | 0.00 | 35 | 1051.1 |
| 20260504215834 | 75 | 189 | 0.0 | 1.0 | 0.00 | 0.00 | 0.00 | 33 | 1051.1 |
| 20260504214835 | 75 | 27 | 0.0 | 0.0 | 0.00 | 0.00 | 0.00 | 35 | 1051.0 |
| 20260504213834 | 75 | 89 | 0.0 | 2.0 | 0.00 | 0.00 | 0.00 | 35 | 1051.0 |
| 20260504212835 | 75 | 176 | 0.0 | 2.0 | 0.00 | 0.00 | 0.00 | 35 | 1051.0 |
| 20260504211933 | 74 | 327 | 0.0 | 2.0 | 0.00 | 0.00 | 0.00 | 33 | 1051.0 |
| 20260504210835 | 74 | 195 | 1.0 | 3.0 | 0.00 | 0.00 | 0.00 | 36 | 1051.1 |
| 20260504210735 | 74 | 226 | 4.0 | 7.0 | 0.00 | 0.00 | 0.00 | 36 | 1051.1 |
| 20260504205833 | 74 | 133 | 2.0 | 5.0 | 0.00 | 0.00 | 0.00 | 36 | 1050.9 |
| 20260504204834 | 74 | 129 | 2.0 | 6.0 | 0.00 | 0.00 | 0.00 | 35 | 1051.1 |
| 20260504203835 | 74 | 189 | 3.0 | 7.0 | 0.00 | 0.00 | 0.00 | 35 | 1051.3 |
| 20260504202833 | 74 | 142 | 2.0 | 5.0 | 0.00 | 0.00 | 0.00 | 33 | 1051.4 |
| 20260504201836 | 74 | 212 | 4.0 | 6.0 | 0.00 | 0.00 | 0.00 | 32 | 1051.4 |
| 20260504200834 | 74 | 178 | 1.0 | 5.0 | 0.00 | 0.00 | 0.00 | 33 | 1051.5 |
| 20260504200718 | 73 | 205 | 2.0 | 5.0 | 0.00 | 0.00 | 0.00 | 33 | 1051.5 |
| 20260504193734 | 72 | 221 | 5.0 | 8.0 | 0.00 | 0.00 | 0.00 | 34 | 1052.1 |
| 20260504192734 | 72 | 230 | 2.0 | 5.0 | 0.00 | 0.00 | 0.00 | 34 | 1052.2 |
| 20260504190736 | 72 | 232 | 5.0 | 8.0 | 0.00 | 0.00 | 0.00 | 34 | 1052.7 |
| 20260504185834 | 71 | 159 | 4.0 | 9.0 | 0.00 | 0.00 | 0.00 | 33 | 1052.7 |
| 20260504184834 | 71 | 223 | 6.0 | 11.0 | 0.00 | 0.00 | 0.00 | 34 | 1053.0 |
| 20260504183835 | 71 | 215 | 7.0 | 13.0 | 0.00 | 0.00 | 0.00 | 34 | 1053.1 |
| 20260504181834 | 72 | 231 | 4.0 | 8.0 | 0.00 | 0.00 | 0.00 | 34 | 1053.0 |
| 20260504181734 | 72 | 229 | 3.0 | 4.0 | 0.00 | 0.00 | 0.00 | 34 | 1053.1 |
| 20260504180733 | 71 | 186 | 2.0 | 3.0 | 0.00 | 0.00 | 0.00 | 35 | 1053.2 |
| 20260504174834 | 69 | 215 | 2.0 | 4.0 | 0.00 | 0.00 | 0.00 | 36 | 1053.6 |
| 20260504173835 | 69 | 217 | 4.0 | 8.0 | 0.00 | 0.00 | 0.00 | 36 | 1053.6 |
| 20260504172833 | 69 | 233 | 4.0 | 8.0 | 0.00 | 0.00 | 0.00 | 35 | 1053.9 |
| 20260504171932 | 70 | 210 | 7.0 | 13.0 | 0.00 | 0.00 | 0.00 | 34 | 1053.6 |
| 20260504170937 | 69 | 151 | 2.0 | 3.0 | 0.00 | 0.00 | 0.00 | 36 | 1054.0 |
| 20260504151033 | 64 | 204 | 3.0 | 7.0 | 0.00 | 0.00 | 0.00 | 39 | 1055.3 |
| 20260504141033 | 61 | 218 | 3.0 | 9.0 | 0.00 | 0.00 | 0.00 | 45 | 1055.7 |
| 20260504081536 | 35 | 202 | 0.0 | 0.0 | 0.00 | 0.00 | 0.00 | 87 | 1056.4 |
| 20260504044934 | 36 | 202 | 0.0 | 0.0 | 0.00 | 0.00 | 0.00 | 85 | 1056.7 |
| 20260504044833 | 36 | 202 | 0.0 | 0.0 | 0.00 | 0.00 | 0.00 | 84 | 1056.6 |
| 20260504043932 | 37 | 202 | 0.0 | 0.0 | 0.00 | 0.00 | 0.00 | 84 | 1056.7 |
| 20260504043832 | 37 | 202 | 0.0 | 0.0 | 0.00 | 0.00 | 0.00 | 84 | 1056.7 |
| 20260504042833 | 37 | 202 | 0.0 | 0.0 | 0.00 | 0.00 | 0.00 | 83 | 1056.8 |
| 20260504041834 | 37 | 202 | 0.0 | 0.0 | 0.00 | 0.00 | 0.00 | 83 | 1056.6 |
| 20260504040917 | 37 | 202 | 0.0 | 0.0 | 0.00 | 0.00 | 0.00 | 84 | 1056.5 |
| 20260504040833 | 37 | 202 | 0.0 | 0.0 | 0.00 | 0.00 | 0.00 | 84 | 1056.7 |
| 20260504035837 | 38 | 202 | 0.0 | 0.0 | 0.00 | 0.00 | 0.00 | 83 | 1056.6 |
| 20260504034838 | 38 | 202 | 0.0 | 0.0 | 0.00 | 0.00 | 0.00 | 83 | 1056.6 |
| 20260504033838 | 38 | 202 | 0.0 | 0.0 | 0.00 | 0.00 | 0.00 | 82 | 1056.4 |
| 20260504032936 | 38 | 202 | 0.0 | 0.0 | 0.00 | 0.00 | 0.00 | 81 | 1056.4 |
| 20260504031937 | 39 | 202 | 0.0 | 0.0 | 0.00 | 0.00 | 0.00 | 81 | 1056.2 |
| 20260504031836 | 39 | 202 | 0.0 | 0.0 | 0.00 | 0.00 | 0.00 | 81 | 1056.2 |
| 20260504030838 | 39 | 202 | 0.0 | 0.0 | 0.00 | 0.00 | 0.00 | 80 | 1056.3 |
| 20260504025938 | 39 | 202 | 0.0 | 0.0 | 0.00 | 0.00 | 0.00 | 79 | 1056.3 |
| 20260504025838 | 39 | 202 | 0.0 | 0.0 | 0.00 | 0.00 | 0.00 | 80 | 1056.3 |
| 20260504024838 | 40 | 202 | 0.0 | 0.0 | 0.00 | 0.00 | 0.00 | 78 | 1056.3 |
| 20260504024738 | 40 | 202 | 0.0 | 0.0 | 0.00 | 0.00 | 0.00 | 79 | 1056.2 |
| 20260504022739 | 41 | 202 | 0.0 | 0.0 | 0.00 | 0.00 | 0.00 | 76 | 1056.2 |
| 20260504015835 | 43 | 202 | 0.0 | 0.0 | 0.00 | 0.00 | 0.00 | 73 | 1056.3 |
| 20260504014837 | 43 | 202 | 0.0 | 0.0 | 0.00 | 0.00 | 0.00 | 71 | 1056.1 |
| 20260504013936 | 44 | 202 | 0.0 | 0.0 | 0.00 | 0.00 | 0.00 | 69 | 1056.2 |
| 20260504012838 | 45 | 202 | 0.0 | 0.0 | 0.00 | 0.00 | 0.00 | 67 | 1056.1 |
| 20260504011837 | 45 | 202 | 0.0 | 0.0 | 0.00 | 0.00 | 0.00 | 64 | 1056.0 |
| 20260504010837 | 46 | 202 | 0.0 | 1.0 | 0.00 | 0.00 | 0.00 | 63 | 1055.9 |
| 20260504010738 | 46 | 202 | 0.0 | 0.0 | 0.00 | 0.00 | 0.00 | 62 | 1056.0 |
| 20260504005837 | 47 | 202 | 0.0 | 0.0 | 0.00 | 0.00 | 0.00 | 60 | 1056.1 |
| 20260504004836 | 48 | 202 | 0.0 | 0.0 | 0.00 | 0.00 | 0.00 | 57 | 1056.0 |
| 20260504004737 | 48 | 202 | 0.0 | 1.0 | 0.00 | 0.00 | 0.00 | 57 | 1055.9 |
| 20260504003738 | 49 | 202 | 0.0 | 1.0 | 0.00 | 0.00 | 0.00 | 55 | 1055.9 |
| 20260504002739 | 50 | 225 | 0.0 | 0.0 | 0.00 | 0.00 | 0.00 | 54 | 1055.7 |
| 20260504002639 | 50 | 225 | 0.0 | 0.0 | 0.00 | 0.00 | 0.00 | 54 | 1055.8 |
| 20260504001639 | 51 | 202 | 0.0 | 1.0 | 0.00 | 0.00 | 0.00 | 51 | 1055.6 |
| 20260504000736 | 53 | 202 | 1.0 | 1.0 | 0.00 | 0.00 | 0.00 | 48 | 1055.7 |
| 20260503235737 | 55 | 135 | 1.0 | 1.0 | 0.00 | 0.00 | 0.00 | 43 | 1055.7 |
| 20260503234737 | 57 | 202 | 1.0 | 3.0 | 0.00 | 0.00 | 0.00 | 38 | 1055.4 |
| 20260503233738 | 58 | 213 | 2.0 | 3.0 | 0.00 | 0.00 | 0.00 | 35 | 1055.2 |